User: anonymous   Login
Location: Barrio de Buenos Aires
(28.4500°N, 16.2667°W)
Time: 20:49:54
(UTC+00:00)
Language:

Cosmos 1356 Rocket - Orbit

View from above orbital plane
View from above orbital plane
View from above satellite
View from above satellite

Ground track
Ground track

The orbit data is extracted from the following two-line orbital elements,

1 13154U 82039B   20088.21514598 +.00000250 +00000-0 +18664-4 0  9995
2 13154 081.1851 164.1178 0039303 224.7297 135.0752 14.98715773055486
Epoch (UTC): 28 March 2020 05:09:48
Eccentricity: 0.0039303
inclination: 81.1851°
perigee height: 543 km
apogee height: 598 km
right ascension of ascending node: 164.1178°
argument of perigee: 224.7297°
revolutions per day: 14.98715773
mean anomaly at epoch: 135.0752°
orbit number at epoch: 5548

The dashed part of the orbit path shows where the satellite is in the earth's shadow,  

DLR